YCFS

Details ICAO YCFS
Name Coffs Harbour
Region Australia
Timezone Australia/Sydney (UTC+10.0)
Plans Departing 49
Arriving 55
Stats Elevation 18 ft / 5 m (AMSL)
Location -30.324426° 153.115959°
Runways 2
Magnetic Variation 11.920° E
Sunrise 2018-05-20 20:30:43 UTC / 2018-05-21 06:30:43 Local
Sunset 2018-05-21 07:00:20 UTC / 2018-05-21 17:00:20 Local
Advertisement - Login to hide

Runways

ID Width Length Bearing (true) Bearing (mag) Surface Threshold Offset Overrun Length
03 148 ft / 45 m 6,832 ft / 2,082 m 40.57° 28.65° Asphalt 0 ft / 0 m 0 ft / 0 m
10 59 ft / 18 m 2,792 ft / 851 m 107.17° 95.25° Asphalt 262 ft / 80 m 0 ft / 0 m
21 148 ft / 45 m 6,832 ft / 2,082 m 220.57° 208.65° Asphalt 0 ft / 0 m 0 ft / 0 m
28 59 ft / 18 m 2,792 ft / 851 m 287.16° 275.24° Asphalt 66 ft / 20 m 0 ft / 0 m

Map

Weather


0- 5 10 15 20 25 30 35+ Temperature / ° C

Clouds and Precipitation
Forecast for 2018-05-21 00:00 UTC. Updated 2 minutes ago

Ground ~20,000 ft ~40,000 ft Winds

METAR

YCFS 202300Z AUTO 25004KT 9999 // NCD 16/09 Q1022

TAF

TAF YCFS 201701Z 2018/2118 28005KT CAVOK BECMG 2023/2101 17005KT CAVOK BECMG 2108/2110 28005KT CAVOK

Frequencies

Recorded 130.30 MHz YSCH ATIS
Unicom 118.20 MHz COFFS HARBOUR MULT
Tower 122.60 MHz BRISBANE CNTR
Unicom 125.10 MHz ACTIVATE LIGHTS ONLY MULT
Tower 118.20 MHz COFFS TWR
Warning: Do not use this data for real-world aviation or navigation. No guarantee of current accuracy is given.